GSAT0227 (GALILEO 30)

Last updated on Sat Sep 19 2026 00:02:49 GMT+0000 (Coordinated Universal Time)

1 59600U 24079C 26260.09672514 .00000007 00000+0 00000+0 0 9997 2 59600 55.1567 98.5081 0004623 108.0703 252.0500 1.70473691 14935
UTC large
Height (km)
Speed (km/s)
/
Latitude / Longitude
Inclination (degrees)
Orbital Period (minutes)
Azimuth
Elevation
Range (km)
Doppler Factor

Next 0 passes for location: London (51.5072 / 0.1276)

No passes found over London.
GSAT0227 (GALILEO 30)